Wind_Speed
17 17 16 16 16 16 17 17 16 16 16 16 15 15 15 14 14 14 13 13 13 13 12 12 12 13 12 12 11 10 9 9 8 8 7 6 6 6 6 6 6 5 4
18 18 18 18 18 18 18 18 18 18 17 17 17 17 17 16 15 15 15 15 15 14 14 13 14 14 13 13 12 11 11 10 9 9 8 8 8 7 7 7 7 6 6
19 19 20 20 20 20 20 20 20 20 20 20 19 19 18 18 17 17 17 16 16 16 15 15 15 15 14 14 13 13 12 11 11 10 10 9 9 9 8 8 8 7 7
20 21 21 22 22 22 22 22 22 22 22 22 22 21 21 20 20 19 19 19 18 18 18 17 16 16 16 16 15 15 14 13 13 12 11 11 11 10 9 10 9 8 8
21 22 22 23 23 24 24 24 24 23 24 24 24 23 23 22 21 21 21 20 20 20 19 19 18 18 17 17 17 16 16 15 15 14 13 13 13 12 11 11 11 10 10
23 23 23 24 24 25 25 25 25 25 25 26 25 25 25 24 24 23 23 22 21 21 21 20 20 19 19 19 19 18 17 17 16 16 15 14 14 13 13 13 13 12 12
24 24 25 25 25 26 26 27 27 26 26 27 27 27 27 26 26 25 25 24 23 23 23 23 22 21 22 21 21 20 19 19 18 17 17 16 15 15 14 14 14 14 13
25 26 26 26 27 27 28 28 28 28 28 28 28 28 29 28 28 28 27 27 25 25 24 24 24 24 23 23 22 22 22 21 20 19 18 18 17 17 16 16 16 16 14
27 28 28 28 29 29 29 29 30 30 30 31 30 30 30 30 30 30 30 29 28 27 26 26 25 25 25 24 24 24 24 23 23 22 21 20 19 19 18 18 18 17 16
30 29 30 30 31 31 31 31 32 32 32 33 32 32 32 32 32 31 32 32 31 30 30 29 28 27 27 27 27 26 26 26 25 24 23 22 21 21 20 20 19 18 18
31 32 32 32 33 33 33 33 33 34 34 34 34 33 33 33 33 33 33 33 33 33 32 31 30 29 29 28 28 28 28 27 27 26 25 24 24 23 22 22 21 21 20
34 34 34 34 34 34 34 34 35 35 35 35 35 35 35 34 34 34 34 34 34 34 34 34 32 31 31 30 30 30 30 29 28 28 27 27 26 25 25 25 24 23 22
36 36 36 35 35 35 35 35 35 36 37 37 36 36 37 36 36 35 35 36 36 36 36 36 35 34 33 33 32 31 31 31 30 29 29 29 28 27 27 26 26 25 24
37 37 37 37 36 36 36 37 37 37 38 38 38 38 38 38 37 37 37 37 37 37 37 37 37 37 35 35 34 34 33 33 32 32 31 30 30 29 28 27 27 26 26
38 38 38 38 37 37 37 37 38 38 38 39 40 39 39 39 39 38 38 38 38 38 38 38 38 38 38 37 36 36 35 35 35 34 33 32 32 31 31 30 29 28 28
40 40 40 40 39 39 39 39 39 39 39 40 41 41 40 40 40 40 39 39 40 39 39 39 40 40 40 39 39 38 37 37 36 36 35 35 34 33 33 32 31 30 30
41 41 42 42 41 41 40 40 40 40 39 39 41 41 41 41 41 40 40 40 41 41 41 41 41 42 41 41 41 40 39 38 38 38 37 36 36 35 34 34 33 33 32
42 42 43 43 43 42 42 42 42 42 41 41 41 42 42 42 42 42 41 41 42 42 42 42 43 43 43 43 43 42 42 41 40 39 39 38 38 37 36 36 35 35 34
43 43 43 44 44 44 44 43 43 43 43 43 42 43 43 43 44 43 43 43 43 42 43 43 44 44 44 44 44 44 44 43 42 41 41 40 40 39 38 38 37 37 35
43 44 44 45 46 46 46 45 45 45 45 44 44 44 45 45 45 45 45 45 45 44 44 44 45 45 46 46 46 46 46 45 45 44 43 42 42 41 40 40 40 39 38
44 45 45 46 46 47 47 46 45 45 46 46 46 45 46 46 46 46 47 46 46 45 45 45 45 45 46 47 47 47 47 47 47 46 45 44 44 43 42 42 41 40 40
45 45 45 46 46 46 47 46 46 45 46 47 46 46 46 46 46 47 46 47 46 46 46 47 46 46 47 47 48 48 49 49 48 48 47 46 46 45 44 44 43 42 41
46 46 46 46 46 46 47 47 47 47 47 47 47 47 47 47 47 47 47 48 48 48 48 48 48 47 47 48 48 48 49 49 49 48 48 47 47 47 47 46 45 44 43
46 46 45 46 46 46 47 47 48 48 47 47 48 48 48 48 48 48 48 48 49 49 48 48 48 48 48 48 49 49 49 48 49 49 48 49 48 48 48 48 48 47 45
45 46 45 45 46 46 47 47 48 49 48 48 48 49 49 49 49 49 49 49 50 50 50 50 48 48 49 49 50 50 49 50 50 50 50 50 50 50 49 49 49 50 48
45 45 45 46 46 47 47 48 48 49 49 49 49 50 50 50 50 50 50 50 49 50 51 50 49 49 49 50 51 51 51 52 52 52 52 52 52 51 51 51 50 50 50
Wind_Direction
253 252 251 250 250 249 249 248 248 248 247 248 249 248 246 247 248 247 247 248 247 246 246 245 243 243 245 247 247 248 247 249 248 243 243 240 233 230 229 231 224 223 224
254 254 252 252 253 252 251 251 251 250 250 248 249 249 247 247 247 247 249 250 248 247 247 248 246 244 243 244 244 245 247 248 247 243 243 242 238 237 236 231 227 230 231
255 256 255 254 254 254 253 253 253 252 252 252 251 251 250 249 248 248 248 248 248 248 249 248 247 246 244 242 243 244 246 247 246 245 244 242 241 241 239 235 233 235 237
256 256 256 256 256 255 255 255 255 254 253 253 252 252 251 250 249 248 248 249 249 249 250 250 248 246 245 242 242 244 245 246 245 246 245 242 242 241 240 238 237 241 240
258 257 257 257 256 256 256 255 256 254 253 252 252 252 252 252 251 249 249 249 249 248 249 251 251 248 247 245 244 243 245 245 244 244 243 242 242 241 240 240 239 242 244
261 259 259 259 258 257 257 256 255 254 253 252 252 252 252 252 251 250 250 248 248 247 248 250 252 251 249 247 246 244 244 245 243 243 242 240 241 241 241 243 242 244 244
263 262 261 260 259 258 257 257 256 255 254 252 251 251 251 251 251 251 251 250 249 247 247 249 250 250 251 250 247 245 244 244 244 244 243 240 241 242 241 242 242 244 246
263 263 262 261 260 259 258 257 256 255 254 252 252 251 251 251 252 253 253 252 250 248 247 248 249 250 250 250 248 246 244 244 245 244 242 240 242 243 242 242 242 244 246
263 262 262 262 261 260 259 258 257 256 255 254 253 252 252 253 253 254 253 252 251 249 249 249 248 248 248 248 248 247 245 243 244 244 243 241 241 243 244 242 243 243 245
263 262 261 261 260 260 259 259 257 256 255 255 254 253 253 253 253 253 253 253 251 250 249 248 248 247 247 248 249 249 247 245 243 244 243 242 242 242 243 243 244 244 245
264 263 262 261 260 260 260 259 258 257 256 255 255 254 254 254 254 254 254 254 252 251 250 248 247 247 247 247 248 249 249 247 244 242 242 242 243 243 243 244 245 245 246
263 262 262 262 261 260 260 259 258 257 256 255 254 254 254 255 254 254 254 254 253 251 250 250 249 248 248 247 248 249 248 247 245 243 242 242 243 244 244 245 246 247 247
264 263 261 261 261 260 259 259 259 257 256 256 255 254 254 255 255 255 255 254 253 252 251 250 249 248 248 248 248 249 250 248 247 246 245 243 244 245 246 246 246 247 248
265 264 262 260 260 260 259 258 258 258 256 255 255 254 254 255 255 255 255 254 253 253 252 251 250 249 248 248 248 250 250 250 249 248 247 246 245 245 246 246 247 248 248
265 264 262 261 260 260 259 259 258 259 257 255 255 255 254 254 254 254 255 254 253 253 252 251 250 249 249 248 249 250 250 251 250 249 247 246 244 245 245 245 247 248 249
265 263 262 261 261 260 259 259 259 259 258 256 254 255 254 254 254 254 256 256 255 253 252 252 251 250 249 249 249 250 251 250 250 249 248 247 246 246 245 245 245 247 249
265 263 262 261 260 260 259 259 259 258 258 257 255 254 254 254 254 255 256 257 257 255 254 252 251 250 249 249 249 250 250 250 249 248 247 247 247 247 246 246 245 246 247
265 263 262 261 260 260 259 259 258 258 257 257 256 254 254 254 254 255 256 257 257 256 255 254 252 251 250 249 248 249 249 249 248 247 247 246 246 247 247 246 245 246 246
264 262 261 259 259 259 259 258 257 256 256 256 257 255 254 253 254 255 255 256 257 256 255 255 254 252 251 250 249 248 248 248 247 246 246 247 246 246 247 247 245 245 246
263 262 261 259 259 258 258 257 256 256 255 256 256 255 253 253 254 254 255 256 256 256 256 256 254 253 252 251 250 249 248 247 246 245 246 246 246 246 247 247 246 246 245
263 262 261 260 259 258 257 256 256 256 255 255 256 255 254 253 254 254 254 255 256 256 256 256 255 254 253 252 251 249 248 247 246 246 245 245 246 246 246 246 246 246 246
263 262 261 261 261 259 258 257 256 256 255 255 256 255 254 253 253 253 254 254 255 255 256 256 255 255 254 253 251 250 249 247 246 246 246 245 246 246 247 247 246 246 246
264 264 263 262 261 260 258 257 256 255 255 254 255 255 253 252 253 253 253 254 254 255 255 256 255 255 254 253 251 251 249 247 246 245 246 246 246 247 247 247 247 247 246
266 264 263 262 261 260 258 258 257 256 256 255 255 255 253 252 253 253 253 253 254 255 255 255 256 255 254 253 251 251 249 247 246 245 245 246 247 247 247 247 247 247 246
266 265 264 263 262 260 259 258 258 257 255 254 254 254 253 253 253 253 253 253 254 255 254 254 255 254 254 253 252 250 250 248 247 246 246 247 247 247 246 247 247 247 246
266 265 264 263 262 260 260 259 258 257 256 254 253 254 253 253 253 253 253 254 254 254 253 253 253 253 253 253 252 251 251 250 248 248 248 247 247 247 247 247 248 247 247
Height
5818 5819 5819 5820 5821 5822 5823 5824 5825 5825 5827 5828 5829 5830 5831 5832 5833 5834 5835 5837 5838 5839 5840 5841 5842 5843 5845 5845 5846 5847 5848 5849 5850 5851 5852 5852 5853 5854 5854 5855 5856 5856 5857
5814 5815 5816 5817 5818 5819 5820 5820 5821 5822 5823 5824 5826 5827 5828 5829 5830 5831 5833 5834 5835 5836 5838 5839 5840 5841 5842 5843 5844 5845 5846 5847 5848 5849 5850 5851 5852 5853 5854 5854 5855 5855 5856
5811 5812 5813 5813 5814 5815 5816 5817 5818 5819 5819 5821 5822 5823 5824 5826 5827 5828 5830 5831 5832 5834 5835 5836 5837 5838 5839 5841 5842 5843 5844 5845 5847 5848 5849 5850 5851 5852 5852 5853 5854 5854 5855
5807 5808 5808 5809 5810 5811 5812 5813 5814 5815 5816 5817 5818 5819 5820 5822 5823 5825 5826 5827 5829 5830 5832 5833 5834 5835 5837 5838 5839 5841 5842 5843 5844 5845 5847 5848 5849 5850 5851 5852 5852 5853 5854
5802 5803 5804 5805 5805 5806 5807 5808 5809 5810 5811 5812 5813 5814 5816 5817 5819 5820 5822 5824 5825 5826 5828 5829 5831 5832 5834 5835 5836 5837 5839 5840 5842 5843 5844 5845 5847 5848 5849 5850 5850 5851 5852
5798 5798 5799 5800 5800 5801 5802 5803 5804 5805 5806 5807 5808 5809 5811 5812 5814 5815 5817 5819 5821 5822 5824 5825 5827 5829 5830 5831 5833 5834 5836 5837 5839 5840 5841 5843 5844 5845 5846 5848 5849 5849 5850
5793 5793 5794 5794 5795 5796 5796 5797 5798 5799 5800 5801 5802 5804 5805 5807 5808 5810 5812 5814 5816 5817 5819 5821 5823 5824 5826 5828 5829 5831 5832 5834 5835 5837 5838 5840 5841 5842 5844 5845 5846 5847 5848
5787 5788 5788 5788 5789 5790 5790 5791 5792 5793 5794 5795 5796 5798 5799 5801 5803 5804 5806 5808 5810 5812 5814 5816 5818 5820 5821 5823 5825 5826 5828 5830 5832 5833 5835 5836 5838 5839 5840 5842 5843 5844 5846
5781 5781 5782 5782 5783 5783 5784 5785 5785 5786 5787 5789 5790 5791 5793 5794 5796 5798 5800 5802 5804 5806 5808 5810 5813 5815 5816 5818 5820 5822 5824 5826 5828 5829 5831 5833 5834 5836 5837 5838 5840 5841 5843
5774 5775 5775 5776 5776 5777 5777 5778 5778 5779 5781 5782 5783 5784 5786 5788 5789 5791 5793 5795 5798 5800 5802 5804 5806 5809 5811 5813 5815 5817 5819 5821 5823 5825 5827 5829 5830 5832 5833 5835 5836 5838 5839
5767 5767 5768 5768 5769 5769 5770 5770 5771 5772 5773 5774 5776 5777 5779 5780 5782 5784 5786 5788 5790 5793 5795 5798 5800 5802 5805 5807 5809 5811 5813 5815 5817 5819 5822 5824 5826 5827 5829 5831 5832 5834 5835
5759 5759 5760 5760 5760 5761 5761 5762 5763 5764 5765 5766 5768 5770 5771 5773 5775 5777 5778 5780 5782 5785 5788 5790 5793 5795 5798 5800 5803 5805 5807 5809 5812 5814 5816 5818 5821 5823 5824 5826 5828 5829 5831
5751 5751 5751 5752 5752 5752 5753 5754 5755 5755 5757 5758 5760 5761 5763 5765 5767 5769 5771 5772 5774 5777 5780 5782 5785 5788 5791 5793 5796 5799 5801 5803 5806 5808 5810 5812 5815 5817 5819 5821 5823 5825 5826
5743 5743 5743 5743 5744 5744 5744 5745 5746 5747 5748 5749 5751 5753 5755 5757 5758 5760 5762 5764 5766 5769 5771 5774 5777 5780 5783 5786 5789 5792 5794 5797 5799 5801 5804 5806 5809 5811 5813 5815 5818 5819 5821
5733 5733 5734 5734 5735 5735 5736 5736 5737 5738 5738 5740 5742 5743 5745 5748 5750 5751 5753 5755 5757 5760 5763 5765 5768 5772 5775 5778 5781 5784 5786 5789 5792 5794 5797 5800 5802 5805 5807 5810 5812 5814 5815
5723 5724 5724 5725 5725 5726 5726 5727 5727 5728 5729 5730 5732 5734 5736 5738 5740 5743 5744 5746 5748 5751 5753 5756 5759 5762 5766 5769 5772 5775 5778 5781 5783 5786 5789 5792 5795 5798 5800 5803 5805 5807 5809
5713 5713 5713 5714 5715 5715 5716 5717 5717 5718 5719 5720 5722 5724 5726 5728 5731 5733 5735 5737 5739 5741 5744 5746 5749 5753 5756 5759 5763 5766 5769 5772 5775 5778 5781 5784 5787 5790 5793 5795 5798 5800 5803
5701 5701 5702 5703 5704 5704 5705 5706 5707 5708 5709 5711 5712 5714 5716 5718 5721 5723 5725 5727 5729 5731 5734 5736 5739 5742 5746 5749 5753 5756 5759 5762 5765 5768 5772 5775 5778 5781 5785 5787 5790 5793 5795
5689 5690 5690 5691 5692 5693 5694 5695 5696 5697 5699 5700 5702 5704 5706 5708 5710 5713 5715 5717 5719 5721 5723 5726 5729 5732 5735 5738 5742 5745 5748 5752 5755 5758 5762 5766 5769 5772 5776 5779 5782 5785 5787
5678 5678 5679 5679 5680 5681 5682 5683 5685 5686 5688 5689 5691 5692 5695 5697 5699 5702 5704 5706 5708 5711 5713 5715 5718 5720 5724 5727 5730 5734 5737 5740 5744 5748 5752 5755 5759 5763 5767 5770 5773 5776 5779
5666 5666 5667 5667 5668 5669 5670 5671 5673 5675 5677 5678 5680 5681 5683 5685 5688 5690 5692 5694 5697 5699 5702 5704 5706 5709 5712 5715 5718 5722 5725 5729 5733 5737 5741 5745 5749 5753 5756 5760 5764 5767 5770
5654 5654 5655 5655 5656 5657 5658 5659 5661 5663 5664 5666 5668 5669 5671 5674 5676 5678 5681 5683 5685 5688 5690 5693 5695 5697 5700 5703 5706 5710 5714 5718 5721 5725 5729 5734 5738 5742 5746 5749 5753 5757 5760
5642 5642 5643 5643 5644 5644 5646 5647 5649 5650 5652 5653 5655 5657 5659 5662 5664 5667 5669 5672 5674 5676 5678 5681 5683 5686 5688 5691 5694 5697 5701 5706 5710 5714 5718 5722 5726 5730 5734 5738 5743 5746 5750
5629 5630 5630 5631 5631 5632 5634 5635 5637 5638 5640 5642 5644 5645 5647 5650 5652 5655 5657 5660 5662 5664 5666 5668 5671 5673 5676 5679 5682 5685 5690 5694 5698 5703 5707 5711 5714 5718 5722 5727 5731 5735 5739
5617 5617 5618 5618 5619 5620 5621 5623 5625 5626 5628 5629 5631 5633 5635 5638 5640 5642 5645 5647 5649 5651 5654 5656 5659 5661 5664 5667 5670 5673 5677 5681 5685 5690 5695 5699 5702 5706 5710 5714 5719 5723 5727
5605 5605 5605 5606 5607 5608 5609 5611 5612 5613 5615 5617 5619 5621 5623 5625 5627 5630 5632 5634 5636 5639 5641 5643 5646 5649 5651 5654 5658 5661 5664 5668 5672 5676 5681 5686 5690 5694 5698 5702 5706 5711 5715